Location: Chacón
(10.5789°N, 66.9317°W)
Time: 14:37:37
(UTC+00:00)

Cosmos 1727 Rocket - Pass Details

Date: 07 August 2024
Orbit: 960 x 997 km, 82.9° (Epoch: 08 September)

Event Time Altitude Azimuth Distance (km) Brightness Sun altitude
Rises 00:41:49 0° 0° (N) 3,648 7.3 -26.7°
Reaches altitude 10° 00:44:21 10° 3° (N) 2,697 6.5 -27.3°
Enters shadow 00:49:48 64° 45° (NE) 1,055 4.0 -28.5°
